Regional Weather Roundup
Issued by NWS

Home | Current Version | Previous Version | Graphics & Text | Print | Product List | Glossary On
Versions: 1 2 3 4 5 6 7 8 9 10 11 12 13 14 15 16 17 18 19 20 21 22 23 24 25 26 27 28 29 30 31 32 33 34 35 36 37 38 39 40 41 42 43 44 45 46 47 48 49 50
000
ASUS45 KABQ 291210
RWRNM
WEATHER ROUNDUP FOR NEW MEXICO
NATIONAL WEATHER SERVICE ALBUQUERQUE NM
600 AM MDT FRI AUG 29 2014

NOTE: "FAIR" MEANS FEW OR NO CLOUDS BELOW 12,000 FEET AGL WITH NO
       SIGNIFICANT WEATHER OR OBSTRUCTIONS TO VISION.

      THIS PRODUCT IS RELEASED AS TWO VERSIONS.  ONE VERSION NEAR
      THE TOP OF THE HOUR CONTAINING PRELIMINARY DATA FROM ALBUQUERQUE
      AND OTHER STATIONS.  A FINAL VERSION WITH ADDITIONAL DATA IS
      ISSUED ABOUT 10 MINUTES AFTER THE HOUR.

NMZ501-503-504-510>518-291300-
NORTHWEST PLATEAU/NORTHCENTRAL MOUNTAINS

CITY           SKY/WX    TMP DP  RH WIND       PRES   REMARKS
FARMINGTON     CLEAR     51  42  71 NE6       30.17R
6HR MIN TEMP:  50; 6HR MAX TEMP:  67;

LOS ALAMOS     CLEAR     57  40  54 CALM      30.27S
SANTA FE       CLEAR     52  45  77 NE3       30.22R
6HR MIN TEMP:  51; 6HR MAX TEMP:  60;

ANGEL FIRE     FAIR      34  32  91 CALM      30.36R

$$
NMZ402-403-502-505>509-291300-
WESTCENTRAL MOUNTAINS/SOUTHWEST MOUNTAINS

CITY           SKY/WX    TMP DP  RH WIND       PRES   REMARKS
GALLUP         CLEAR     45  34  65 CALM      30.24S
6HR MIN TEMP:  41; 6HR MAX TEMP:  55;

SILVER CITY    CLEAR     63  39  42 W8        30.13R

$$
NMZ407-409-411-412-291300-
SOUTHERN DESERTS

CITY           SKY/WX    TMP DP  RH WIND       PRES   REMARKS
LORDSBURG      FAIR      63  45  51 CALM      30.04S
DEMING         CLEAR     60  46  59 W3        30.04R
6HR MIN TEMP:  60; 6HR MAX TEMP:  72;

LAS CRUCES     CLOUDY    71  46  40 N13       30.04R
HOLLOMAN AFB   CLEAR     61  47  62 NE6       30.01S
ALAMOGORDO     CLEAR     59  46  63 E3        30.03S
T OR C         CLEAR     64  44  48 NW9       30.09R
6HR MIN TEMP:  63; 6HR MAX TEMP:  74;


$$
NMZ519>523-291300-
CENTRAL VALLEYS/CENTRAL HIGHLANDS

CITY           SKY/WX    TMP DP  RH WIND       PRES   REMARKS
ALBUQUERQUE    CLEAR     63  44  50 NE6       30.16R
6HR MIN TEMP:  62; 6HR MAX TEMP:  73;

DOUBLE EAGLE   CLEAR     55  45  67 NW5       30.19R
MORIARTY ARPT  FAIR      46  42  87 N3        30.23R
6HR MIN TEMP:  46; 6HR MAX TEMP:  55;

CLINES CORNERS CLEAR     54  41  61 NE7       30.24R
6HR MIN TEMP:  52; 6HR MAX TEMP:  59;

BELEN          FAIR      56  45  67 W3        30.15R
6HR MIN TEMP:  52; 6HR MAX TEMP:  66;

SOCORRO        FAIR      64  46  52 N3        30.12R
6HR MIN TEMP:  60; 6HR MAX TEMP:  68;


$$
NMZ524>526-539-540-291300-
SOUTHCENTRAL MOUNTAINS

CITY           SKY/WX    TMP DP  RH WIND       PRES   REMARKS
RUIDOSO        CLEAR     55  45  67 W8        30.25R

$$
NMZ527>531-291300-
NORTHEAST HIGHLANDS/NORTHEAST PLAINS

CITY           SKY/WX    TMP DP  RH WIND       PRES   REMARKS
LAS VEGAS      PTCLDY    50  41  71 CALM      30.24S
6HR MIN TEMP:  47; 6HR MAX TEMP:  55;

RATON          CLEAR     43  41  93 E9        30.19S
6HR MIN TEMP:  43; 6HR MAX TEMP:  54;

CLAYTON        CLEAR     53  47  79 SW8       30.10R
6HR MIN TEMP:  53; 6HR MAX TEMP:  61;


$$
NMZ532>537-291300-
EASTCENTRAL PLAINS

CITY           SKY/WX    TMP DP  RH WIND       PRES   REMARKS
TUCUMCARI      CLEAR     60  52  74 SW3       30.07R
6HR MIN TEMP:  59; 6HR MAX TEMP:  70;

CANNON AFB     PTCLDY    60  52  74 NE9       30.07F
6HR MIN TEMP:  60; 6HR MAX TEMP:  66;

CLOVIS AIRPORT   N/A     57  48  72 N9        30.10S

$$
NMZ028-029-538-291300-
SOUTHEAST PLAINS

CITY           SKY/WX    TMP DP  RH WIND       PRES   REMARKS
ROSWELL        CLEAR     69  48  47 N14       30.03R
6HR MIN TEMP:  68; 6HR MAX TEMP:  74;

CARLSBAD       CLEAR     71  50  47 N15       29.98R
6HR MIN TEMP:  69; 6HR MAX TEMP:  77;

HOBBS          CLEAR     64  63  94 CALM      29.99


$$


USA.gov is the U.S. government's official web portal to all federal, state and local government web resources and services.